BEIDOU-2 G8 (C01)

Last updated on Wed Aug 26 2026 00:04:16 GMT+0000 (Coordinated Universal Time)

1 44231U 19027A 26237.57385697 -.00000250 00000+0 00000+0 0 9999 2 44231 1.8281 74.3983 0008995 281.3387 329.1741 1.00268827 26776
UTC large
Height (km)
Speed (km/s)
/
Latitude / Longitude
Inclination (degrees)
Orbital Period (minutes)
Azimuth
Elevation
Range (km)
Doppler Factor

Next 0 passes for location: London (51.5072 / 0.1276)

No passes found over London.
BEIDOU-2 G8 (C01)